Weather History for Jaipur, India

Change the Weather History Date:

Saturday, March 2, 2013

  Actual Average Record
Temperature  
Mean Temperature 68 °F -  
Max Temperature 85 °F - - ()
Min Temperature 52 °F - - ()
Cooling Degree Days 4    
Growing Degree Days 18 (Base 50)    
Moisture  
Dew Point 40 °F    
Average Humidity 37    
Maximum Humidity 67    
Minimum Humidity 14    
Precipitation  
Precipitation 0.00 in - - ()
Sea Level Pressure  
Sea Level Pressure 30.06 in    
Wind  
Wind Speed 3 mph ()    
Max Wind Speed 10 mph    
Max Gust Speed -    
Visibility 2.3 miles    
Events      
T = Trace of Precipitation, MM = Missing Value Source: Averaged Metar Reports

Daily Weather History Graph

Daily Weather History Graph

Search for Another Location

Airport:

Trip Planner

Search our weather history database for the weather conditions in past years. The results will help you decide how hot, cold, wet, or windy it might be!

Date:

Astronomy

Mar. 02, 2013 Rise Set
Actual Time 6:49 AM IST 6:28 PM IST
Civil Twilight 6:26 AM IST 6:51 PM IST
Nautical Twilight 5:59 AM IST 7:18 PM IST
Astronomical Twilight 5:32 AM IST 7:45 PM IST
Moon 11:04 PM IST (3/2) 9:28 AM IST (3/2)
Length of Visible Light 12h 25m
Length of Day
11h 38m
Waning Gibbous, 78% of the Moon is Illuminated
Mar 2
Waning Gibbous
Mar 5
Last Quarter
Mar 12
New
Mar 19
First Quarter
Mar 27
Full

Hourly Weather History & Observations

Time (IST) Temp. Dew Point Humidity Pressure Visibility Wind Dir Wind Speed Gust Speed Precip Events Conditions
12:00 AM 60.8 °F 39.2 °F 45% 30.09 in 1.6 mi Variable 3.5 mph - N/A   Haze
1:00 AM 60.8 °F 37.4 °F 42% 30.06 in 1.6 mi Calm Calm - N/A   Haze
2:00 AM 59.0 °F 37.4 °F 45% 30.06 in 1.6 mi Calm Calm - N/A   Haze
2:30 AM 57.2 °F 37.4 °F 48% 30.04 in 1.6 mi Calm Calm - N/A   Haze
3:00 AM 57.2 °F 37.4 °F 48% 30.04 in 1.6 mi Calm Calm - N/A   Haze
4:00 AM 51.8 °F 39.2 °F 62% 30.04 in 1.6 mi Calm Calm - N/A   Haze
5:00 AM 55.4 °F 39.2 °F 54% 30.04 in 1.6 mi Calm Calm - N/A   Haze
6:00 AM 53.6 °F 41.0 °F 62% 30.06 in 1.6 mi Calm Calm - N/A   Haze
7:00 AM 51.8 °F 41.0 °F 67% 30.06 in 1.6 mi Calm Calm - N/A   Haze
8:00 AM 60.8 °F 42.8 °F 52% 30.09 in 1.6 mi Variable 5.8 mph - N/A   Haze
8:30 AM 61 °F 44 °F 43% 30.07 in 1 mi NW 4.6 mph - -   Haze
9:00 AM 66.2 °F 41.0 °F 40% 30.12 in 2.5 mi Variable 8.1 mph - N/A   Haze
10:00 AM 69.8 °F 37.4 °F 31% 30.12 in 2.5 mi Variable 10.4 mph - N/A   Haze
11:00 AM 73.4 °F 39.2 °F 29% 30.12 in 2.5 mi Variable 6.9 mph - N/A   Haze
1:00 PM 78.8 °F 39.2 °F 24% 30.09 in 3.7 mi Variable 8.1 mph - N/A   Unknown
2:00 PM 82.4 °F 37.4 °F 20% 30.06 in 3.7 mi Variable 5.8 mph - N/A   Unknown
3:00 PM 84.2 °F 39.2 °F 20% 30.06 in 3.7 mi NW 8.1 mph - N/A   Unknown
4:00 PM 84.2 °F 37.4 °F 19% 30.04 in 3.7 mi Variable 8.1 mph - N/A   Unknown
5:00 PM 82.4 °F 39.2 °F 21% 30.04 in 3.7 mi NW 6.9 mph - N/A   Unknown
5:30 PM 82 °F 41 °F 14% 29.98 in 2 mi NW 5.8 mph - -  
6:00 PM 80.6 °F 39.2 °F 23% 30.04 in 3.7 mi NW 5.8 mph - N/A   Unknown
7:00 PM 77.0 °F 39.2 °F 26% 30.06 in 2.5 mi NNW 3.5 mph - N/A   Haze
8:00 PM 75.2 °F 41.0 °F 29% 30.06 in 2.5 mi Variable 3.5 mph - N/A   Haze
8:30 PM 72 °F 43 °F 24% 30.03 in 2 mi North 2.3 mph - -   Haze
9:00 PM 71.6 °F 42.8 °F 35% 30.09 in 2.5 mi Variable 2.3 mph - N/A   Haze
10:00 PM 69.8 °F 42.8 °F 38% 30.09 in 2.5 mi Variable 3.5 mph - N/A   Haze
11:00 PM 66.2 °F 42.8 °F 43% 30.09 in 2.2 mi Calm Calm - N/A   Haze
11:30 PM 67 °F 44 °F 31% 30.05 in 1 mi 2.3 mph - -   Haze